Regional Weather Roundup
Issued by NWS Portland, ME

Current Version | Previous Version | Text Only | Print | Product List | Glossary Off
Versions: 1 2 3 4 5 6 7 8 9 10 11 12 13 14 15 16 17 18 19 20 21 22 23 24 25 26 27 28 29 30 31 32 33 34 35 36 37 38 39 40 41 42 43 44 45 46 47 48 49 50
000 ASUS41 KGYX 201310 RWRGYX WEATHER ROUNDUP FOR MAINE AND NEW HAMPSHIRE NATIONAL WEATHER SERVICE GRAY ME 800 AM EST SAT JAN 20 2018 MEZ002-005-006-010-012-015-018-020-021-024-026-027-029-201400- MAINE CITY SKY/WX TMP DP RH WIND PRES REMARKS PORTLAND CLOUDY 33 22 63 S12 29.58F SANFORD FAIR 31 22 69 SW9 29.60F BAR HARBOR CLOUDY 35 31 85 SW18G25 29.53F WISCASSET FAIR 34 25 69 SW13G23 29.56F ROCKLAND FAIR 36 29 75 SW12 29.55F FRYEBURG FAIR 26 22 84 NW5 29.53F LEWISTONAUBURN FAIR 30 22 72 S9 29.54F AUGUSTA FAIR 29 21 72 S5 29.54F WATERVILLE FAIR 27 23 85 CALM 29.50F BANGOR CLOUDY 31 24 75 SW9 29.54F GREENVILLE NOT AVBL MILLINOCKET CLOUDY 27 22 81 VRB6 29.49S HOULTON CLOUDY 27 23 85 SW8 29.44R PRESQUE ISLE CLOUDY 28 23 81 S14 29.39F WCI 17 FRENCHVILLE CLOUDY 24 22 91 S10 29.28F WCI 14 CARIBOU CLOUDY 28 22 78 S12 29.36F WCI 18 $$ NHZ002-005-008-009-011-012-014-201400- NEW HAMPSHIRE CITY SKY/WX TMP DP RH WIND PRES REMARKS PORTSMOUTH MOCLDY 34 21 60 SW10 29.61F ROCHESTER FAIR 30 22 72 S5 29.60F NASHUA FAIR 33 23 66 VRB5 29.65F MANCHESTER CLOUDY 33 21 61 S10 29.62F CONCORD FAIR 29 22 75 S8 29.63F LACONIA FAIR 28 21 75 SW10 29.61R WCI 19 PLYMOUTH FAIR 20 19 96 CALM 29.61S FOG BERLIN FAIR 18 16 92 CALM 29.52R FOG WHITEFIELD FAIR 21 20 96 CALM 29.58R FOG JAFFREY FAIR 31 22 69 S15G23 29.63F KEENE FAIR 27 23 85 CALM 29.69R LEBANON FAIR 26 20 77 VRB6 29.62R MT WASHINGTON FOG 14 14 100 W74G83 N/A VSB 1/16WCI -15 $$ VTZ005-007-008-201400- VERMONT CITY SKY/WX TMP DP RH WIND PRES REMARKS ST JOHNSBURY N/A 26 22 84 MISG 29.57R MONTPELIER FAIR 36 23 59 SW9 29.61R BURLINGTON MOCLDY 34 21 59 S15 29.64R $$ MAZ007-012-024-CTZ003-RIZ002-NYZ038-NYZ072-201400- SOUTHERN NEW ENGLAND AND NY CITY SKY/WX TMP DP RH WIND PRES REMARKS BOSTON MOCLDY 36 23 59 SW21 29.69F WORCESTER FAIR 32 19 58 SW25G33 29.65F WCI 19 NANTUCKET FAIR 40 37 89 SW18 29.80F PROVIDENCE MOCLDY 38 24 57 SW15 29.76S HARTFORD MOCLDY 34 21 59 SW13 29.74F ALBANY MOCLDY 32 20 61 S6 29.77R NEW YORK CITY FAIR 40 21 46 SW9G23 29.87R $$ ANZ081-ANZ082-ANZ150-NHZ014-MEZ023>029-201400- COASTAL MARINE OBSERVATIONS STATION/POSITION TIME TEMP WIND PRES WAVE AIR SEA DIR/SP/G HT/PER (UTC) (F) (DEG/KT/KT) (MB) (FT/S) MOUNT DESERT ROC 1300 41 200/ 27/ 30 1001.5F MATINICUS ROCK 1200 40 230/ 32/ 35 1001.8F ISLE OF SHOALS 1200 34 220/ 24/ 26 1003.6F JEFFREYS LEDGE 1236 43 N/A 6/ 6 GEORGES BANK BUO 1150 48 58 1009.7 7/ 9 $$ .............KEY.............. WCI - WIND CHILL TC - TEMPERATURE IN CELSIUS VSB - VISIBILITY IN MILES HX - HEAT INDEX FAIR- INDICATES FEW OR NO CLOUDS BELOW 12,000 FT, WITH NO SIGNIFICANT WEATHER AND/OR OBSTRUCTIONS TO VISIBILITY.

USA.gov is the U.S. government's official web portal to all federal, state and local government web resources and services.